Tracking 25405 objects as of 27-Jan-2022
HD Live streaming from Space Station
objects crossing your sky now

GALILEO 23 (2C9)

Track GALILEO 23 (2C9) now!
GALILEO 23 (2C9) is classified as:


NORAD ID: 43566
Int'l Code: 2018-060C
Perigee: 23,213.9 km
Apogee: 23,244.3 km
Inclination: 57.1 °
Period: 844.7 minutes
Semi major axis: 29600 km
RCS: Unknown
Launch date: July 25, 2018
Source: European Space Agency (ESA)
Launch site: FRENCH GUIANA (FRGUI)
aabbcc
Your satellite tracking list
Your tracking list is empty




NASA's NSSDC Master Catalog

Two Line Element Set (TLE):
1 43566U 18060C   22026.36829445 -.00000052  00000-0  00000+0 0  9999
2 43566  57.1231  25.0340 0005131 288.6167  71.3523  1.70475674 21866
Source of the keplerian elements: AFSPC